Time,TemperatureF,DewpointF,PressureIn,WindDirection,WindDirectionDegrees,WindSpeedMPH,WindSpeedGustMPH,Humidity,HourlyPrecipIn,Conditions,Clouds,dailyrainin,SoftwareType,DateUTC
2013-06-15 00:02:00,53.0,-99.9,29.92,SE,125,0.0,1.0,0,-99.99,,,-99.99,,2013-06-15 07:02:00,
2013-06-15 00:11:00,53.0,-99.9,29.92,SE,125,0.0,1.0,0,-99.99,,,-99.99,,2013-06-15 07:11:00,
2013-06-15 00:23:00,54.0,-99.9,29.92,SE,125,0.0,0.0,0,-99.99,,,-99.99,,2013-06-15 07:23:00,
2013-06-15 00:33:00,53.0,-99.9,29.91,SSE,150,0.0,2.0,0,-99.99,,,-99.99,,2013-06-15 07:33:00,
2013-06-15 00:43:00,53.0,-99.9,29.91,SE,140,0.0,0.0,0,-99.99,,,-99.99,,2013-06-15 07:43:00,
2013-06-15 00:54:00,53.0,-99.9,29.91,SE,140,0.0,0.0,0,-99.99,,,-99.99,,2013-06-15 07:54:00,
2013-06-15 01:03:00,53.0,-99.9,29.91,SE,125,0.0,1.0,0,-99.99,,,-99.99,,2013-06-15 08:03:00,
2013-06-15 01:12:00,53.0,-99.9,29.91,SE,125,0.0,1.0,0,-99.99,,,-99.99,,2013-06-15 08:12:00,
2013-06-15 01:22:00,53.0,-99.9,29.90,SSE,165,2.0,3.0,0,-99.99,,,-99.99,,2013-06-15 08:22:00,
2013-06-15 01:34:00,54.0,-99.9,29.90,ESE,105,0.0,2.0,0,-99.99,,,-99.99,,2013-06-15 08:34:00,
2013-06-15 01:43:00,52.0,-99.9,29.90,ESE,105,0.0,0.0,0,-99.99,,,-99.99,,2013-06-15 08:43:00,
2013-06-15 01:53:00,52.0,-99.9,29.90,ESE,105,0.0,0.0,0,-99.99,,,-99.99,,2013-06-15 08:53:00,
2013-06-15 02:02:00,52.0,-99.9,29.90,East,100,0.0,0.0,0,-99.99,,,-99.99,,2013-06-15 09:02:00,
2013-06-15 02:12:00,52.0,-99.9,29.90,East,100,0.0,0.0,0,-99.99,,,-99.99,,2013-06-15 09:12:00,
2013-06-15 02:22:00,51.0,-99.9,29.90,East,100,0.0,0.0,0,-99.99,,,-99.99,,2013-06-15 09:22:00,
2013-06-15 02:33:00,51.0,-99.9,29.90,East,100,0.0,0.0,0,-99.99,,,-99.99,,2013-06-15 09:33:00,
2013-06-15 02:43:00,51.0,-99.9,29.89,SE,125,0.0,0.0,0,-99.99,,,-99.99,,2013-06-15 09:43:00,
2013-06-15 02:52:00,51.0,-99.9,29.89,SE,125,0.0,0.0,0,-99.99,,,-99.99,,2013-06-15 09:52:00,
2013-06-15 03:02:00,51.0,-99.9,29.89,SE,125,0.0,0.0,0,-99.99,,,-99.99,,2013-06-15 10:02:00,
2013-06-15 03:12:00,51.0,-99.9,29.89,SE,125,0.0,0.0,0,-99.99,,,-99.99,,2013-06-15 10:12:00,
2013-06-15 03:23:00,51.0,-99.9,29.89,SE,125,0.0,0.0,0,-99.99,,,-99.99,,2013-06-15 10:23:00,
2013-06-15 03:34:00,50.0,-99.9,29.88,SE,125,0.0,0.0,0,-99.99,,,-99.99,,2013-06-15 10:34:00,
2013-06-15 03:44:00,50.0,-99.9,29.88,SE,125,0.0,0.0,0,-99.99,,,-99.99,,2013-06-15 10:44:00,
2013-06-15 03:53:00,50.0,-99.9,29.88,SE,125,0.0,0.0,0,-99.99,,,-99.99,,2013-06-15 10:53:00,
2013-06-15 04:02:00,50.0,-99.9,29.88,ESE,110,0.0,2.0,0,-99.99,,,-99.99,,2013-06-15 11:02:00,
2013-06-15 04:12:00,49.0,-99.9,29.88,SE,140,1.0,2.0,0,-99.99,,,-99.99,,2013-06-15 11:12:00,
2013-06-15 04:22:00,49.0,-99.9,29.88,SE,140,1.0,2.0,0,-99.99,,,-99.99,,2013-06-15 11:22:00,
2013-06-15 04:33:00,48.0,-99.9,29.88,ESE,105,1.0,3.0,0,-99.99,,,-99.99,,2013-06-15 11:33:00,
2013-06-15 04:43:00,48.0,-99.9,29.88,ESE,105,1.0,3.0,0,-99.99,,,-99.99,,2013-06-15 11:43:00,
2013-06-15 04:53:00,47.0,-99.9,29.87,SE,140,1.0,3.0,0,-99.99,,,-99.99,,2013-06-15 11:53:00,
2013-06-15 05:02:00,48.0,-99.9,29.87,ESE,120,0.0,1.0,0,-99.99,,,-99.99,,2013-06-15 12:02:00,
2013-06-15 05:12:00,48.0,-99.9,29.87,ESE,120,0.0,1.0,0,-99.99,,,-99.99,,2013-06-15 12:12:00,
2013-06-15 05:22:00,49.0,-99.9,29.87,ESE,120,0.0,1.0,0,-99.99,,,-99.99,,2013-06-15 12:22:00,
2013-06-15 05:33:00,49.0,-99.9,29.87,ENE,75,0.0,2.0,0,-99.99,,,-99.99,,2013-06-15 12:33:00,
2013-06-15 05:44:00,49.0,-99.9,29.87,ENE,75,1.0,3.0,0,-99.99,,,-99.99,,2013-06-15 12:44:00,
2013-06-15 05:53:00,49.0,-99.9,29.87,ENE,75,1.0,3.0,0,-99.99,,,-99.99,,2013-06-15 12:53:00,
2013-06-15 06:02:00,50.0,-99.9,29.87,East,100,0.0,2.0,0,-99.99,,,-99.99,,2013-06-15 13:02:00,
2013-06-15 06:11:00,50.0,-99.9,29.87,East,100,0.0,2.0,0,-99.99,,,-99.99,,2013-06-15 13:11:00,
2013-06-15 06:22:00,49.0,-99.9,29.87,ESE,115,1.0,1.0,0,-99.99,,,-99.99,,2013-06-15 13:22:00,
2013-06-15 06:33:00,49.0,-99.9,29.86,SE,125,0.0,3.0,0,-99.99,,,-99.99,,2013-06-15 13:33:00,
2013-06-15 06:44:00,49.0,-99.9,29.86,ESE,115,0.0,1.0,0,-99.99,,,-99.99,,2013-06-15 13:44:00,
2013-06-15 06:53:00,49.0,-99.9,29.86,ESE,115,0.0,1.0,0,-99.99,,,-99.99,,2013-06-15 13:53:00,
2013-06-15 07:02:00,50.0,-99.9,29.87,ESE,115,0.0,0.0,0,-99.99,,,-99.99,,2013-06-15 14:02:00,
2013-06-15 07:12:00,50.0,-99.9,29.86,ESE,115,0.0,0.0,0,-99.99,,,-99.99,,2013-06-15 14:12:00,
2013-06-15 07:23:00,50.0,-99.9,29.86,ESE,115,0.0,0.0,0,-99.99,,,-99.99,,2013-06-15 14:23:00,
2013-06-15 07:34:00,50.0,-99.9,29.86,ESE,115,0.0,0.0,0,-99.99,,,-99.99,,2013-06-15 14:34:00,
2013-06-15 07:43:00,53.0,-99.9,29.86,SE,125,0.0,1.0,0,-99.99,,,-99.99,,2013-06-15 14:43:00,
2013-06-15 07:54:00,53.0,-99.9,29.86,SE,125,0.0,1.0,0,-99.99,,,-99.99,,2013-06-15 14:54:00,
2013-06-15 08:02:00,55.0,-99.9,29.86,ENE,65,0.0,2.0,0,-99.99,,,-99.99,,2013-06-15 15:02:00,
2013-06-15 08:12:00,55.0,-99.9,29.86,ENE,65,0.0,2.0,0,-99.99,,,-99.99,,2013-06-15 15:12:00,
2013-06-15 08:22:00,57.0,-99.9,29.86,NW,315,0.0,0.0,0,-99.99,,,-99.99,,2013-06-15 15:22:00,
2013-06-15 08:33:00,58.0,-99.9,29.86,West,270,0.0,3.0,0,-99.99,,,-99.99,,2013-06-15 15:33:00,
2013-06-15 08:43:00,58.0,-99.9,29.86,West,270,0.0,3.0,0,-99.99,,,-99.99,,2013-06-15 15:43:00,
2013-06-15 08:53:00,58.0,-99.9,29.86,West,270,0.0,3.0,0,-99.99,,,-99.99,,2013-06-15 15:53:00,
2013-06-15 09:02:00,61.0,-99.9,29.85,SE,130,0.0,6.0,0,-99.99,,,-99.99,,2013-06-15 16:02:00,
2013-06-15 09:12:00,61.0,-99.9,29.85,SE,130,0.0,6.0,0,-99.99,,,-99.99,,2013-06-15 16:12:00,
2013-06-15 09:22:00,62.0,-99.9,29.85,ESE,105,1.0,5.0,0,-99.99,,,-99.99,,2013-06-15 16:22:00,
2013-06-15 09:33:00,63.0,-99.9,29.85,East,95,1.0,7.0,0,-99.99,,,-99.99,,2013-06-15 16:33:00,
2013-06-15 09:43:00,63.0,-99.9,29.85,East,95,1.0,7.0,0,-99.99,,,-99.99,,2013-06-15 16:43:00,
2013-06-15 09:54:00,64.0,-99.9,29.84,SSE,165,1.0,9.0,0,-99.99,,,-99.99,,2013-06-15 16:54:00,
2013-06-15 10:02:00,64.0,-99.9,29.84,SE,130,2.0,9.0,0,-99.99,,,-99.99,,2013-06-15 17:02:00,
2013-06-15 10:12:00,64.0,-99.9,29.84,SE,130,2.0,9.0,0,-99.99,,,-99.99,,2013-06-15 17:12:00,
2013-06-15 10:22:00,66.0,-99.9,29.84,SSE,155,1.0,6.0,0,-99.99,,,-99.99,,2013-06-15 17:22:00,
2013-06-15 10:32:00,66.0,-99.9,29.84,SSE,155,1.0,6.0,0,-99.99,,,-99.99,,2013-06-15 17:32:00,
2013-06-15 10:43:00,67.0,-99.9,29.84,SW,230,2.0,7.0,0,-99.99,,,-99.99,,2013-06-15 17:43:00,
2013-06-15 10:52:00,67.0,-99.9,29.84,SW,235,1.0,6.0,0,-99.99,,,-99.99,,2013-06-15 17:52:00,
2013-06-15 11:01:00,68.0,-99.9,29.83,WSW,250,2.0,12.0,0,-99.99,,,-99.99,,2013-06-15 18:01:00,
2013-06-15 11:12:00,68.0,-99.9,29.83,SW,220,6.0,10.0,0,-99.99,,,-99.99,,2013-06-15 18:12:00,
2013-06-15 11:22:00,68.0,-99.9,29.83,SW,220,6.0,10.0,0,-99.99,,,-99.99,,2013-06-15 18:22:00,
2013-06-15 11:33:00,70.0,-99.9,29.82,ENE,70,1.0,9.0,0,-99.99,,,-99.99,,2013-06-15 18:33:00,
2013-06-15 11:43:00,70.0,-99.9,29.82,ENE,70,1.0,9.0,0,-99.99,,,-99.99,,2013-06-15 18:43:00,
2013-06-15 11:53:00,70.0,-99.9,29.82,WNW,295,0.0,10.0,0,-99.99,,,-99.99,,2013-06-15 18:53:00,
2013-06-15 12:02:00,71.0,-99.9,29.81,South,180,5.0,9.0,0,-99.99,,,-99.99,,2013-06-15 19:02:00,
2013-06-15 12:12:00,72.0,-99.9,29.81,SW,225,2.0,12.0,0,-99.99,,,-99.99,,2013-06-15 19:12:00,
2013-06-15 12:22:00,72.0,-99.9,29.81,SW,225,2.0,12.0,0,-99.99,,,-99.99,,2013-06-15 19:22:00,
2013-06-15 12:33:00,72.0,-99.9,29.80,SE,145,3.0,8.0,0,-99.99,,,-99.99,,2013-06-15 19:33:00,
2013-06-15 12:43:00,72.0,-99.9,29.80,SE,145,3.0,8.0,0,-99.99,,,-99.99,,2013-06-15 19:43:00,
2013-06-15 12:53:00,73.0,-99.9,29.80,SSE,150,3.0,10.0,0,-99.99,,,-99.99,,2013-06-15 19:53:00,
2013-06-15 13:02:00,73.0,-99.9,29.80,West,280,2.0,10.0,0,-99.99,,,-99.99,,2013-06-15 20:02:00,
2013-06-15 13:12:00,73.0,-99.9,29.80,West,280,2.0,10.0,0,-99.99,,,-99.99,,2013-06-15 20:12:00,
2013-06-15 13:22:00,74.0,-99.9,29.79,SSW,210,0.0,8.0,0,-99.99,,,-99.99,,2013-06-15 20:22:00,
2013-06-15 13:34:00,74.0,-99.9,29.79,WNW,290,5.0,10.0,0,-99.99,,,-99.99,,2013-06-15 20:34:00,
2013-06-15 13:43:00,74.0,-99.9,29.79,WNW,290,5.0,10.0,0,-99.99,,,-99.99,,2013-06-15 20:43:00,
2013-06-15 13:53:00,74.0,-99.9,29.78,North,10,3.0,13.0,0,-99.99,,,-99.99,,2013-06-15 20:53:00,
2013-06-15 14:02:00,75.0,-99.9,29.77,North,360,3.0,8.0,0,-99.99,,,-99.99,,2013-06-15 21:02:00,
2013-06-15 14:12:00,75.0,-99.9,29.77,North,360,3.0,8.0,0,-99.99,,,-99.99,,2013-06-15 21:12:00,
2013-06-15 14:22:00,76.0,-99.9,29.77,West,280,2.0,12.0,0,-99.99,,,-99.99,,2013-06-15 21:22:00,
2013-06-15 14:34:00,76.0,-99.9,29.77,West,280,2.0,12.0,0,-99.99,,,-99.99,,2013-06-15 21:34:00,
2013-06-15 14:42:00,76.0,-99.9,29.77,NNW,330,5.0,10.0,0,-99.99,,,-99.99,,2013-06-15 21:42:00,
2013-06-15 14:53:00,76.0,-99.9,29.77,NNW,330,5.0,10.0,0,-99.99,,,-99.99,,2013-06-15 21:53:00,
2013-06-15 15:02:00,76.0,-99.9,29.76,West,275,2.0,6.0,0,-99.99,,,-99.99,,2013-06-15 22:02:00,
2013-06-15 15:11:00,76.0,-99.9,29.76,West,275,2.0,6.0,0,-99.99,,,-99.99,,2013-06-15 22:11:00,
2013-06-15 15:22:00,77.0,-99.9,29.75,NW,325,5.0,8.0,0,-99.99,,,-99.99,,2013-06-15 22:22:00,
2013-06-15 15:33:00,76.0,-99.9,29.75,NW,320,5.0,9.0,0,-99.99,,,-99.99,,2013-06-15 22:33:00,
2013-06-15 15:43:00,76.0,-99.9,29.75,NW,320,5.0,9.0,0,-99.99,,,-99.99,,2013-06-15 22:43:00,
2013-06-15 15:53:00,76.0,-99.9,29.75,NNW,330,3.0,9.0,0,-99.99,,,-99.99,,2013-06-15 22:53:00,
2013-06-15 16:02:00,76.0,-99.9,29.75,NNW,330,3.0,9.0,0,-99.99,,,-99.99,,2013-06-15 23:02:00,
2013-06-15 16:12:00,77.0,-99.9,29.74,NW,320,3.0,10.0,0,-99.99,,,-99.99,,2013-06-15 23:12:00,
2013-06-15 16:22:00,77.0,-99.9,29.74,NW,320,3.0,10.0,0,-99.99,,,-99.99,,2013-06-15 23:22:00,
2013-06-15 16:33:00,77.0,-99.9,29.74,NW,320,3.0,10.0,0,-99.99,,,-99.99,,2013-06-15 23:33:00,
2013-06-15 16:43:00,77.0,-99.9,29.74,NNW,345,6.0,10.0,0,-99.99,,,-99.99,,2013-06-15 23:43:00,
2013-06-15 16:53:00,77.0,-99.9,29.74,NW,320,3.0,10.0,0,-99.99,,,-99.99,,2013-06-15 23:53:00,
2013-06-15 17:02:00,77.0,-99.9,29.74,NW,320,3.0,10.0,0,-99.99,,,-99.99,,2013-06-16 00:02:00,
2013-06-15 17:12:00,77.0,-99.9,29.74,NW,320,3.0,10.0,0,-99.99,,,-99.99,,2013-06-16 00:12:00,
2013-06-15 17:22:00,78.0,-99.9,29.73,NNW,330,3.0,13.0,0,-99.99,,,-99.99,,2013-06-16 00:22:00,
2013-06-15 17:34:00,78.0,-99.9,29.73,NNW,330,3.0,13.0,0,-99.99,,,-99.99,,2013-06-16 00:34:00,
2013-06-15 17:43:00,77.0,-99.9,29.73,NW,325,6.0,13.0,0,-99.99,,,-99.99,,2013-06-16 00:43:00,
2013-06-15 17:53:00,77.0,-99.9,29.73,NW,315,8.0,16.0,0,-99.99,,,-99.99,,2013-06-16 00:53:00,
2013-06-15 18:02:00,77.0,-99.9,29.73,NW,315,8.0,16.0,0,-99.99,,,-99.99,,2013-06-16 01:02:00,
2013-06-15 18:12:00,77.0,-99.9,29.73,NW,315,8.0,16.0,0,-99.99,,,-99.99,,2013-06-16 01:12:00,
2013-06-15 18:22:00,76.0,-99.9,29.73,NW,315,8.0,10.0,0,-99.99,,,-99.99,,2013-06-16 01:22:00,
2013-06-15 18:33:00,76.0,-99.9,29.73,NW,315,8.0,10.0,0,-99.99,,,-99.99,,2013-06-16 01:33:00,
2013-06-15 18:43:00,77.0,-99.9,29.73,NW,325,3.0,13.0,0,-99.99,,,-99.99,,2013-06-16 01:43:00,
2013-06-15 18:53:00,75.0,-99.9,29.74,North,5,6.0,13.0,0,-99.99,,,-99.99,,2013-06-16 01:53:00,
2013-06-15 19:02:00,75.0,-99.9,29.74,North,5,6.0,13.0,0,-99.99,,,-99.99,,2013-06-16 02:02:00,
2013-06-15 19:12:00,74.0,-99.9,29.75,NNW,345,3.0,12.0,0,-99.99,,,-99.99,,2013-06-16 02:12:00,
2013-06-15 19:22:00,74.0,-99.9,29.75,NNW,345,3.0,12.0,0,-99.99,,,-99.99,,2013-06-16 02:22:00,
2013-06-15 19:33:00,73.0,-99.9,29.74,North,10,12.0,12.0,0,-99.99,,,-99.99,,2013-06-16 02:33:00,
2013-06-15 19:43:00,73.0,-99.9,29.74,North,10,12.0,12.0,0,-99.99,,,-99.99,,2013-06-16 02:43:00,
2013-06-15 19:53:00,72.0,-99.9,29.76,NW,315,3.0,10.0,0,-99.99,,,-99.99,,2013-06-16 02:53:00,
2013-06-15 20:02:00,72.0,-99.9,29.76,NW,315,3.0,10.0,0,-99.99,,,-99.99,,2013-06-16 03:02:00,
2013-06-15 20:12:00,70.0,-99.9,29.77,NNW,335,3.0,9.0,0,-99.99,,,-99.99,,2013-06-16 03:12:00,
2013-06-15 20:22:00,70.0,-99.9,29.77,NNW,335,3.0,9.0,0,-99.99,,,-99.99,,2013-06-16 03:22:00,
2013-06-15 20:34:00,70.0,-99.9,29.77,NNW,335,3.0,9.0,0,-99.99,,,-99.99,,2013-06-16 03:34:00,
2013-06-15 20:43:00,70.0,-99.9,29.77,NNW,330,6.0,9.0,0,-99.99,,,-99.99,,2013-06-16 03:43:00,
2013-06-15 20:53:00,67.0,-99.9,29.77,NW,325,3.0,9.0,0,-99.99,,,-99.99,,2013-06-16 03:53:00,
2013-06-15 21:02:00,67.0,-99.9,29.77,NW,325,3.0,9.0,0,-99.99,,,-99.99,,2013-06-16 04:02:00,
2013-06-15 21:12:00,66.0,-99.9,29.79,NE,40,3.0,10.0,0,-99.99,,,-99.99,,2013-06-16 04:12:00,
2013-06-15 21:23:00,66.0,-99.9,29.79,NE,40,3.0,10.0,0,-99.99,,,-99.99,,2013-06-16 04:23:00,
2013-06-15 21:34:00,64.0,-99.9,29.80,NNW,330,3.0,9.0,0,-99.99,,,-99.99,,2013-06-16 04:34:00,
2013-06-15 21:43:00,64.0,-99.9,29.80,NNW,330,3.0,9.0,0,-99.99,,,-99.99,,2013-06-16 04:43:00,
2013-06-15 21:53:00,64.0,-99.9,29.81,NNW,340,3.0,7.0,0,-99.99,,,-99.99,,2013-06-16 04:53:00,
2013-06-15 22:02:00,64.0,-99.9,29.81,NNW,340,3.0,7.0,0,-99.99,,,-99.99,,2013-06-16 05:02:00,
2013-06-15 22:12:00,64.0,-99.9,29.81,NNW,340,3.0,7.0,0,-99.99,,,-99.99,,2013-06-16 05:12:00,
2013-06-15 22:22:00,62.0,-99.9,29.82,NW,325,3.0,7.0,0,-99.99,,,-99.99,,2013-06-16 05:22:00,
2013-06-15 22:34:00,61.0,-99.9,29.82,NNW,340,0.0,5.0,0,-99.99,,,-99.99,,2013-06-16 05:34:00,
2013-06-15 22:43:00,61.0,-99.9,29.82,NNW,340,0.0,5.0,0,-99.99,,,-99.99,,2013-06-16 05:43:00,
2013-06-15 22:53:00,61.0,-99.9,29.82,NNW,340,0.0,5.0,0,-99.99,,,-99.99,,2013-06-16 05:53:00,
2013-06-15 23:02:00,60.0,-99.9,29.82,North,10,3.0,3.0,0,-99.99,,,-99.99,,2013-06-16 06:02:00,
2013-06-15 23:12:00,60.0,-99.9,29.82,North,10,3.0,3.0,0,-99.99,,,-99.99,,2013-06-16 06:12:00,
2013-06-15 23:23:00,60.0,-99.9,29.82,NNW,335,1.0,6.0,0,-99.99,,,-99.99,,2013-06-16 06:23:00,
2013-06-15 23:33:00,60.0,-99.9,29.82,NNW,335,1.0,6.0,0,-99.99,,,-99.99,,2013-06-16 06:33:00,
2013-06-15 23:43:00,60.0,-99.9,29.82,NNW,335,1.0,6.0,0,-99.99,,,-99.99,,2013-06-16 06:43:00,
2013-06-15 23:52:00,58.0,-99.9,29.82,North,350,2.0,3.0,0,-99.99,,,-99.99,,2013-06-16 06:52:00,